This is the latest recevied weather packets stored in our database for station/object K5NWZ. If no packets are shown the sender has not sent any weather packets the latest 10 day(s).
| Time | Temp. | Humidity | Pressure | Rain* | Wind** | Luminosity | Snow |
|---|---|---|---|---|---|---|---|
| 1787704063 | 27.78° C | 37% | 1033 hPa | 0 mm | - | 71 W/m² | - |
| 1787703757 | 27.78° C | 37% | 1033 hPa | 0 mm | - | 80 W/m² | - |
| 1787703454 | 27.78° C | 37% | 1033 hPa | 0 mm | - | 66 W/m² | - |
| 1787703149 | 27.78° C | 38% | 1032.9 hPa | 0 mm | - | 60 W/m² | - |
| 1787702844 | 27.78° C | 37% | 1032.9 hPa | 0 mm | - | 65 W/m² | - |
| 1787702539 | 28.33° C | 37% | 1033 hPa | 0 mm | - | 82 W/m² | - |
| 1787702235 | 27.78° C | 37% | 1032.7 hPa | 0 mm | - | 87 W/m² | - |
| 1787701929 | 27.78° C | 37% | 1032.9 hPa | 0 mm | - | 173 W/m² | - |
| 1787701626 | 28.33° C | 37% | 1032.6 hPa | 0 mm | - | 134 W/m² | - |
| 1787701321 | 27.78° C | 36% | 1032.7 hPa | 0 mm | - | 156 W/m² | - |
| 1787701017 | 27.78° C | 37% | 1032.7 hPa | 0 mm | - | 105 W/m² | - |
| 1787700711 | 27.78° C | 36% | 1032.4 hPa | 0 mm | - | 96 W/m² | - |
| 1787700408 | 28.33° C | 37% | 1032.5 hPa | 0 mm | - | 83 W/m² | - |
| 1787700103 | 28.33° C | 36% | 1032.7 hPa | 0 mm | - | 196 W/m² | - |
| 1787699799 | 27.78° C | 37% | 1032.7 hPa | 0 mm | - | 212 W/m² | - |
| 1787699499 | 27.78° C | 38% | 1032.5 hPa | 0 mm | - | 122 W/m² | - |
| 1787699195 | 27.78° C | 38% | 1032.5 hPa | 0 mm | - | 135 W/m² | - |
| 1787698891 | 28.33° C | 37% | 1032.7 hPa | 0 mm | - | 164 W/m² | - |
| 1787698586 | 28.33° C | 37% | 1032.6 hPa | 0 mm | - | 164 W/m² | - |
| 1787698283 | 27.78° C | 39% | 1032.6 hPa | 0 mm | - | 147 W/m² | - |
| 1787697978 | 28.33° C | 38% | 1032.5 hPa | 0 mm | - | 123 W/m² | - |
| 1787697678 | 28.89° C | 38% | 1032.7 hPa | 0 mm | - | 143 W/m² | - |
| 1787697374 | 30° C | 36% | 1032.6 hPa | 0 mm | - | 280 W/m² | - |
| 1787697069 | 28.89° C | 36% | 1032.5 hPa | 0 mm | - | 380 W/m² | - |
| 1787696768 | 28.89° C | 37% | 1032.7 hPa | 0 mm | - | 387 W/m² | - |
* Rain latest hour (hover to see other rain measurements)
** Current wind speed in m/s (hover to see current wind gust speed)